{"data":{"norad_id":64487,"epoch":"2026-05-25T05:22:39.622944Z","epoch_age_seconds":58787,"freshness":"FRESH","line1":"1 64487U 25133R   26145.22406971  .00057352  00000+0  19329-2 0  9999","line2":"2 64487  53.1553 121.4748 0001483  31.0390 329.0698 15.30210916 52891","mean_motion":15.30210916,"eccentricity":0.0001483,"inclination_deg":53.1553,"raan_deg":121.4748,"arg_perigee_deg":31.039,"mean_anomaly_deg":329.0698,"bstar":0.0019329,"rev_number":5289,"period_min":94.104674391174,"perigee_km":474.16612912635,"apogee_km":476.19882368305,"semimajor_km":6853.3194764047,"source":"CELESTRAK","updated_at":"2026-05-25T13:38:20.459978Z"}}